This is the latest recevied weather packets stored in our database for station/object KF0TNT. If no packets are shown the sender has not sent any weather packets the latest 10 day(s).
| Time | Temp. | Humidity | Pressure | Rain* | Wind** | Luminosity | Snow |
|---|---|---|---|---|---|---|---|
| 1777723980 | 0° C | 58% | 1024.3 hPa | 0 mm | - | 9 W/m² | - |
| 1777723677 | 0° C | 59% | 1024.3 hPa | 0 mm | - | 7 W/m² | - |
| 1777723373 | 0° C | 59% | 1024.5 hPa | 0 mm | - | 4 W/m² | - |
| 1777723071 | 0° C | 60% | 1024.3 hPa | 0 mm | - | 2 W/m² | - |
| 1777722768 | 0° C | 59% | 1024.5 hPa | 0 mm | - | 1 W/m² | - |
| 1777722464 | 0° C | 59% | 1024.6 hPa | 0 mm | - | 0 W/m² | - |
| 1777722161 | 0° C | 59% | 1024.5 hPa | 0 mm | - | 0 W/m² | - |
| 1777721858 | 0° C | 60% | 1024.7 hPa | 0 mm | - | 0 W/m² | - |
| 1777721556 | 0° C | 59% | 1024.5 hPa | 0 mm | - | 0 W/m² | - |
| 1777721254 | 0° C | 59% | 1024.5 hPa | 0 mm | - | 0 W/m² | - |
| 1777720951 | 0° C | 59% | 1024.3 hPa | 0 mm | - | 0 W/m² | - |
| 1777720648 | 0° C | 59% | 1024.5 hPa | 0 mm | - | 0 W/m² | - |
| 1777720346 | 0° C | 58% | 1024.6 hPa | 0 mm | - | 0 W/m² | - |
| 1777720043 | 0° C | 58% | 1024.3 hPa | 0 mm | - | 0 W/m² | - |
| 1777719741 | 0° C | 57% | 1024.5 hPa | 0 mm | - | 0 W/m² | - |
| 1777719439 | 0.56° C | 56% | 1024.3 hPa | 0 mm | - | 0 W/m² | - |
| 1777719135 | 0.56° C | 55% | 1024.5 hPa | 0 mm | - | 0 W/m² | - |
| 1777718832 | 0.56° C | 55% | 1024.5 hPa | 0 mm | - | 0 W/m² | - |
| 1777718530 | 0.56° C | 53% | 1024.5 hPa | 0 mm | - | 0 W/m² | - |
| 1777718227 | 0.56° C | 52% | 1024.5 hPa | 0 mm | - | 0 W/m² | - |
| 1777717925 | 0° C | 54% | 1024.8 hPa | 0 mm | - | 0 W/m² | - |
| 1777717621 | 0° C | 58% | 1024.6 hPa | 0 mm | - | 0 W/m² | - |
| 1777717318 | 0° C | 57% | 1024.6 hPa | 0 mm | - | 0 W/m² | - |
| 1777717016 | 0° C | 55% | 1024.6 hPa | 0 mm | - | 0 W/m² | - |
| 1777716714 | 0° C | 57% | 1024.2 hPa | 0 mm | - | 0 W/m² | - |
* Rain latest hour (hover to see other rain measurements)
** Current wind speed in m/s (hover to see current wind gust speed)